Vorticity
16 13 5 12 7 9 12 6 0 21 -3 13 3 8 1 2 5 7 5 5 5 4 3 2 2 3 1 5 5 5 6 5 5 7 12 13 13 5 9 11 7 7 3 4
12 -3 15 -3 6 1 19 -2 25 4 4 14 10 4 17 10 4 4 7 4 6 6 7 6 5 5 6 6 3 3 6 3 9 5 12 13 12 13 6 6 3 3 4 4
19 5 5 9 8 19 -14 2 31 -6 8 17 3 15 -5 11 4 2 4 4 6 5 6 4 5 5 2 4 3 7 7 14 9 17 14 9 3 6 4 3 4 2 3 4
-11 24 22 14 -6 -11 6 -3 32 4 9 15 3 -1 6 -12 5 7 5 5 5 4 3 4 2 3 2 3 7 6 10 15 13 9 5 4 2 2 4 3 2 2 2 3
19 18 -10 59 -9 3 11 12 14 9 14 -1 16 14 -4 -2 -35 10 3 4 3 2 4 6 6 4 3 8 8 18 13 7 1 4 3 1 1 2 2 1 2 2 1 3
8 18 -8 5 9 6 4 7 12 14 8 2 29 2 0 -4 36 6 5 3 12 8 7 4 4 4 7 13 17 8 9 0 2 2 2 2 2 3 3 5 6 6 4 6
22 4 4 -2 0 4 12 5 -0 -7 1 5 2 7 -1 5 9 -1 -12 15 17 15 13 10 12 22 24 11 7 7 3 0 2 3 2 3 3 4 5 5 5 5 4 5
24 2 9 1 10 2 17 23 4 -9 -8 -10 23 16 16 7 8 16 12 15 16 17 20 22 20 10 4 3 4 3 1 1 2 2 3 5 5 5 4 5 4 4 7 1
6 -0 11 4 10 8 6 21 -5 -2 9 7 4 11 5 12 19 17 19 12 8 7 6 6 5 1 4 4 4 3 3 3 4 3 4 5 4 5 6 6 10 12 9 3
7 -3 27 30 7 17 13 6 9 7 6 10 3 -1 13 6 8 5 4 6 7 4 4 5 5 3 3 3 3 4 4 4 6 5 6 7 7 8 7 8 9 14 5 4
-3 -10 -11 19 10 6 10 8 7 5 2 2 17 7 11 2 4 7 6 5 4 3 2 3 3 3 3 4 5 6 5 5 6 6 8 8 8 6 8 7 8 13 2 2
12 7 4 8 7 8 3 -2 10 8 11 14 14 7 -6 4 3 3 3 5 5 5 3 2 2 3 4 4 4 4 5 6 7 9 10 9 7 10 5 9 16 9 4 6
5 8 2 0 12 7 7 9 7 4 11 10 8 7 2 1 1 1 3 2 4 2 4 4 3 1 2 4 5 6 9 9 9 11 9 8 8 12 2 13 9 -1 6 11
4 6 4 3 11 -2 8 17 9 10 8 10 8 2 9 21 7 6 7 -1 4 4 1 2 3 5 6 7 10 9 10 11 8 11 6 8 7 14 12 9 10 8 10 7
4 6 7 7 9 3 11 -5 12 7 8 9 6 5 -2 -8 -4 1 2 1 1 2 3 4 6 9 5 8 10 9 11 10 10 5 9 10 14 11 7 9 8 4 1 -0
9 8 9 10 10 11 8 11 12 9 9 8 6 3 3 1 4 5 2 4 2 3 5 7 11 10 8 7 8 9 8 10 9 11 13 10 7 8 7 11 12 3 6 5
12 13 11 10 9 11 10 12 10 10 9 7 6 5 3 4 1 3 8 4 6 7 8 6 7 8 8 8 11 11 11 11 13 11 8 6 9 7 13 10 3 -1 -0 15
12 9 9 10 9 9 13 10 8 8 8 7 5 3 7 6 5 6 5 6 7 6 6 8 8 10 14 11 10 13 12 10 6 8 7 10 7 7 2 11 10 5 12 16
11 13 13 11 9 9 6 7 8 8 8 7 7 9 7 5 7 3 5 7 5 8 12 15 15 12 12 10 14 10 8 6 6 12 11 13 -1 -15 -2 5 6 6 13 6
12 13 13 13 11 8 8 9 9 7 7 8 10 8 8 6 6 7 7 10 14 14 10 14 14 10 9 9 8 6 8 11 12 11 3 0 11 9 -3 -27 8 7 4 29
11 12 11 10 9 9 9 9 9 7 4 5 5 5 5 5 7 8 11 10 11 9 7 12 8 8 8 8 10 13 11 7 8 10 19 -11 6 12 17 -5 -1 27 20 4
13 12 11 9 7 6 3 5 5 4 5 5 5 6 7 9 11 10 9 9 10 7 14 8 9 8 11 11 9 7 5 6 5 8 6 13 5 12 5 11 27 -6 1 1
3 3 4 4 4 3 3 4 4 6 6 5 6 9 8 10 9 9 6 9 8 10 9 11 13 11 7 7 5 5 5 5 8 9 12 -1 5 10 21 22 -12 0 -7 13
3 4 3 4 5 4 3 5 5 6 4 7 6 6 13 8 7 7 10 12 10 10 14 12 5 6 6 6 4 4 6 7 10 15 10 8 11 13 13 -6 -6 17 24 20
2 3 2 4 4 5 2 2 4 5 7 9 7 12 9 8 10 12 9 10 12 12 7 6 6 5 3 5 7 8 8 15 15 13 10 19 25 5 0 22 24 12 14 19
2 4 3 3 5 4 1 6 8 8 10 10 9 8 11 12 8 10 10 9 9 7 5 5 4 4 6 6 10 14 20 13 11 12 13 1 6 21 24 14 15 16 19 14
Height
5754 5756 5760 5762 5762 5765 5769 5772 5776 5779 5780 5780 5779 5777 5780 5783 5784 5784 5784 5786 5785 5786 5786 5787 5788 5788 5787 5788 5788 5787 5787 5786 5785 5784 5782 5780 5777 5776 5774 5771 5768 5766 5761 5757
5754 5757 5756 5760 5762 5766 5769 5773 5774 5778 5780 5780 5782 5784 5780 5784 5785 5784 5784 5783 5784 5786 5786 5787 5787 5787 5785 5786 5785 5784 5784 5783 5781 5779 5777 5775 5773 5770 5768 5765 5762 5758 5754 5750
5751 5753 5757 5757 5762 5766 5769 5773 5773 5777 5778 5779 5780 5782 5781 5782 5782 5782 5782 5782 5783 5783 5783 5784 5783 5783 5782 5782 5782 5781 5779 5779 5777 5774 5772 5770 5768 5765 5763 5760 5756 5750 5746 5742
5751 5752 5754 5757 5761 5765 5769 5768 5771 5776 5776 5777 5777 5779 5779 5777 5778 5778 5779 5780 5781 5780 5779 5781 5780 5780 5779 5778 5778 5777 5775 5773 5771 5769 5767 5765 5762 5760 5756 5752 5749 5743 5739 5733
5749 5753 5754 5756 5763 5762 5767 5768 5770 5773 5774 5775 5776 5774 5775 5774 5775 5777 5776 5777 5776 5777 5777 5778 5779 5776 5776 5774 5772 5771 5770 5767 5766 5765 5763 5759 5755 5752 5747 5742 5738 5733 5729 5723
5750 5749 5751 5754 5760 5762 5765 5768 5769 5770 5773 5770 5770 5770 5768 5770 5770 5770 5773 5775 5775 5774 5773 5772 5772 5772 5770 5770 5768 5768 5767 5766 5763 5760 5757 5753 5749 5743 5740 5734 5729 5723 5718 5713
5752 5751 5755 5757 5761 5762 5764 5767 5769 5768 5767 5770 5773 5775 5770 5765 5762 5760 5763 5770 5772 5769 5769 5768 5768 5768 5768 5767 5766 5765 5763 5761 5758 5755 5751 5746 5742 5737 5732 5726 5721 5715 5708 5702
5752 5755 5758 5759 5761 5760 5761 5765 5766 5764 5764 5767 5768 5771 5772 5769 5770 5769 5768 5767 5766 5764 5764 5764 5764 5764 5764 5763 5762 5761 5758 5755 5752 5748 5744 5739 5734 5728 5722 5717 5710 5705 5699 5692
5750 5749 5750 5752 5757 5760 5760 5762 5762 5761 5763 5767 5768 5769 5766 5768 5768 5767 5766 5764 5763 5762 5762 5762 5762 5762 5761 5759 5758 5754 5751 5748 5746 5741 5736 5730 5723 5717 5712 5706 5700 5694 5687 5680
5744 5743 5748 5751 5753 5756 5758 5759 5762 5761 5762 5763 5765 5768 5762 5764 5765 5764 5763 5763 5762 5761 5760 5759 5758 5756 5756 5753 5751 5748 5743 5739 5736 5730 5725 5719 5713 5708 5702 5696 5689 5682 5676 5668
5744 5741 5743 5749 5751 5754 5755 5756 5758 5758 5759 5759 5762 5762 5761 5762 5763 5762 5760 5759 5759 5758 5757 5755 5753 5751 5748 5746 5743 5740 5734 5728 5724 5720 5716 5708 5702 5696 5690 5683 5676 5669 5663 5656
5741 5744 5745 5748 5748 5751 5752 5752 5753 5754 5756 5755 5758 5760 5759 5759 5758 5758 5757 5755 5755 5753 5751 5749 5747 5744 5742 5737 5734 5731 5725 5719 5713 5708 5704 5697 5690 5683 5677 5670 5663 5658 5651 5644
5738 5741 5742 5744 5746 5748 5748 5749 5750 5750 5750 5753 5754 5757 5755 5756 5754 5753 5753 5752 5750 5748 5745 5741 5737 5736 5733 5729 5724 5720 5714 5708 5701 5697 5690 5684 5678 5671 5666 5658 5650 5645 5638 5629
5735 5737 5738 5741 5744 5743 5743 5744 5745 5746 5747 5750 5751 5753 5751 5750 5747 5746 5748 5748 5744 5739 5738 5734 5729 5723 5720 5717 5712 5707 5701 5697 5690 5684 5677 5672 5665 5659 5653 5645 5638 5631 5623 5615
5730 5732 5734 5735 5737 5737 5739 5739 5740 5741 5743 5745 5749 5748 5749 5747 5741 5739 5737 5737 5736 5735 5727 5725 5720 5715 5709 5704 5700 5695 5689 5685 5679 5672 5666 5659 5653 5646 5640 5632 5625 5617 5609 5600
5725 5727 5727 5730 5731 5732 5733 5735 5736 5738 5739 5741 5743 5742 5743 5738 5736 5737 5732 5731 5727 5724 5721 5715 5713 5707 5700 5693 5688 5683 5677 5673 5667 5660 5653 5647 5640 5634 5626 5620 5612 5604 5594 5584
5719 5720 5722 5724 5725 5727 5729 5732 5732 5734 5735 5736 5736 5737 5734 5733 5729 5726 5729 5722 5719 5717 5712 5705 5700 5695 5688 5681 5675 5671 5666 5660 5654 5648 5640 5634 5628 5621 5613 5606 5598 5588 5579 5570
5713 5715 5716 5719 5721 5722 5725 5726 5727 5729 5729 5728 5727 5726 5728 5724 5722 5719 5714 5711 5708 5702 5699 5694 5688 5683 5677 5671 5664 5660 5654 5648 5642 5635 5628 5621 5613 5608 5599 5591 5582 5573 5564 5554
5708 5710 5712 5713 5716 5720 5720 5721 5723 5723 5721 5721 5722 5721 5718 5715 5714 5707 5704 5702 5697 5693 5687 5682 5677 5671 5665 5660 5655 5649 5642 5635 5629 5623 5616 5609 5601 5593 5583 5575 5567 5557 5548 5537
5705 5706 5708 5710 5712 5713 5713 5716 5716 5716 5714 5714 5715 5712 5710 5707 5703 5698 5695 5690 5686 5681 5675 5671 5666 5659 5654 5649 5644 5637 5629 5623 5616 5610 5603 5595 5587 5578 5569 5559 5551 5542 5532 5521
5701 5702 5704 5705 5706 5708 5707 5710 5710 5710 5711 5706 5705 5702 5700 5697 5692 5688 5683 5677 5673 5668 5663 5660 5654 5649 5644 5638 5631 5626 5619 5612 5604 5597 5589 5581 5573 5565 5555 5543 5533 5524 5514 5505
5697 5699 5700 5701 5702 5703 5703 5702 5704 5703 5700 5698 5696 5693 5690 5686 5682 5676 5671 5668 5664 5656 5652 5648 5643 5637 5630 5625 5618 5612 5606 5599 5591 5583 5575 5567 5558 5548 5537 5527 5517 5508 5498 5487
5694 5695 5696 5698 5696 5696 5696 5695 5694 5693 5692 5689 5686 5682 5678 5674 5669 5664 5659 5656 5651 5646 5641 5635 5631 5625 5618 5612 5604 5597 5591 5583 5575 5568 5560 5550 5540 5530 5519 5511 5501 5491 5481 5471
5688 5690 5690 5692 5690 5687 5687 5687 5685 5685 5680 5677 5674 5670 5667 5662 5657 5653 5649 5645 5639 5634 5628 5624 5617 5611 5604 5598 5591 5583 5575 5567 5559 5550 5542 5532 5523 5513 5503 5494 5485 5474 5465 5458
5682 5684 5683 5684 5682 5681 5677 5676 5676 5672 5670 5666 5661 5659 5656 5651 5647 5642 5637 5632 5626 5621 5615 5609 5604 5597 5590 5583 5575 5568 5559 5551 5542 5534 5526 5516 5507 5497 5488 5478 5468 5460 5451 5442
5676 5675 5675 5674 5674 5673 5669 5668 5664 5661 5658 5654 5651 5648 5644 5640 5635 5630 5624 5619 5614 5608 5602 5596 5590 5583 5575 5567 5559 5550 5542 5533 5526 5518 5510 5500 5490 5480 5471 5463 5457 5448 5438 5430